Weather History for Mountain Home, ID

Change the Weather History Date:

Wednesday, October 3, 2012

  Actual Average Record
Temperature  
Mean Temperature 48 °F 57 °F  
Max Temperature 63 °F 72 °F 89 °F (1987)
Min Temperature 33 °F 40 °F 24 °F (1925)
Degree Days  
Heating Degree Days 17 9  
Month to date heating degree days 19 25  
Cooling Degree Days 0 0  
Month to date cooling degree days 0 2  
Moisture  
Dew Point 15 °F    
Average Humidity 25    
Maximum Humidity 40    
Minimum Humidity 11    
Precipitation  
Precipitation 0.00 in 0.02 in 0.50 in (1967)
Month to date precipitation 0.00 0.06  
Sea Level Pressure  
Sea Level Pressure 30.10 in    
Wind  
Wind Speed 18 mph (NW)    
Max Wind Speed 30 mph    
Max Gust Speed 37 mph    
Visibility 9 miles    
Events      
T = Trace of Precipitation, MM = Missing Value Source: NWS Daily Summary

Daily Weather History Graph

Daily Weather History Graph

Search for Another Location

Airport:

Trip Planner

Search our weather history database for the weather conditions in past years. The results will help you decide how hot, cold, wet, or windy it might be!

Date:

Astronomy

Oct. 03, 2012 Rise Set
Actual Time 7:43 AM MDT 7:20 PM MDT
Civil Twilight 7:15 AM MDT 7:48 PM MDT
Nautical Twilight 6:42 AM MDT 8:21 PM MDT
Astronomical Twilight 6:09 AM MDT 8:54 PM MDT
Moon 9:08 PM MDT (10/3) 11:17 AM MDT (10/3)
Length of Visible Light 12h 33m
Length of Day
11h 36m
Waning Gibbous, 88% of the Moon is Illuminated
Oct 3
Waning Gibbous
Oct 8
Last Quarter
Oct 15
New
Oct 21
First Quarter
Oct 29
Full

Hourly Weather History & Observations

Time (MDT) Temp. Windchill Dew Point Humidity Pressure Visibility Wind Dir Wind Speed Gust Speed Precip Events Conditions
12:55 AM 56.5 °F - 23.4 °F 28% 29.90 in 10.0 mi NW 12.7 mph - N/A   Clear
1:55 AM 55.0 °F - 21.2 °F 27% 29.93 in 10.0 mi WNW 13.8 mph - N/A   Clear
2:55 AM 55.2 °F - 18.3 °F 24% 29.95 in 10.0 mi NW 20.7 mph - N/A   Clear
3:55 AM 52.3 °F - 23.5 °F 33% 29.98 in 9.0 mi WNW 23.0 mph - N/A   Clear
4:06 AM 51.8 °F - 23.0 °F 33% 29.99 in 6.0 mi NW 24.2 mph 29.9 mph N/A   Haze
4:15 AM 51.8 °F - 23.0 °F 33% 30.00 in 5.0 mi NW 23.0 mph 28.8 mph N/A   Haze
4:44 AM 50.0 °F - 23.0 °F 35% 30.01 in 7.0 mi WNW 25.3 mph 28.8 mph N/A   Scattered Clouds
4:55 AM 50.7 °F - 22.1 °F 33% 30.01 in 7.0 mi WNW 23.0 mph 28.8 mph N/A   Scattered Clouds
5:38 AM 50.0 °F - 21.2 °F 32% 30.03 in 6.0 mi WNW 21.9 mph 29.9 mph N/A   Haze
5:55 AM 49.5 °F - 20.1 °F 31% 30.04 in 10.0 mi WNW 24.2 mph 28.8 mph N/A   Clear
6:55 AM 48.7 °F - 18.5 °F 30% 30.07 in 10.0 mi WNW 21.9 mph 27.6 mph N/A   Clear
7:55 AM 46.0 °F 38.5 °F 15.8 °F 30% 30.11 in 6.0 mi WNW 19.6 mph 25.3 mph N/A   Haze
8:05 AM 46.4 °F 38.5 °F 15.8 °F 29% 30.13 in 10.0 mi WNW 21.9 mph 31.1 mph N/A   Clear
8:55 AM 45.9 °F 37.8 °F 14.7 °F 29% 30.14 in 10.0 mi WNW 21.9 mph 28.8 mph N/A   Clear
9:55 AM 49.1 °F - 12.0 °F 23% 30.16 in 10.0 mi NW 28.8 mph 36.8 mph N/A   Clear
10:55 AM 51.8 °F - 10.9 °F 19% 30.19 in 10.0 mi NW 24.2 mph 31.1 mph N/A   Clear
11:55 AM 54.5 °F - 9.3 °F 16% 30.18 in 10.0 mi NW 26.5 mph 32.2 mph N/A   Clear
12:55 PM 57.0 °F - 8.4 °F 14% 30.15 in 10.0 mi NW 29.9 mph 36.8 mph N/A   Clear
1:55 PM 59.0 °F - 6.6 °F 12% 30.16 in 10.0 mi NW 21.9 mph 33.4 mph N/A   Clear
2:55 PM 60.8 °F - 7.2 °F 12% 30.15 in 10.0 mi NNW 21.9 mph 29.9 mph N/A   Clear
3:55 PM 62.1 °F - 7.5 °F 12% 30.13 in 10.0 mi NW 23.0 mph 29.9 mph N/A   Clear
4:55 PM 62.8 °F - 7.7 °F 11% 30.13 in 10.0 mi NW 19.6 mph - N/A   Clear
5:55 PM 62.2 °F - 9.3 °F 12% 30.14 in 10.0 mi NW 16.1 mph - N/A   Clear
6:55 PM 60.1 °F - 10.0 °F 14% 30.14 in 10.0 mi NW 12.7 mph - N/A   Clear
7:55 PM 52.2 °F - 11.3 °F 20% 30.17 in 10.0 mi NW 8.1 mph - N/A   Clear
8:55 PM 45.1 °F - 10.6 °F 25% 30.20 in 10.0 mi Calm Calm - N/A   Clear
9:55 PM 42.1 °F - 7.9 °F 25% 30.20 in 10.0 mi Calm Calm - N/A   Clear
10:55 PM 37.4 °F - 11.1 °F 34% 30.21 in 10.0 mi Calm Calm - N/A   Clear
11:55 PM 34.7 °F 29.6 °F 12.4 °F 40% 30.22 in 10.0 mi ESE 5.8 mph - N/A   Clear